Home   Weather   Butare   Past weeks

Flag for Rwanda Past Weather in Butare, Rwanda — Yesterday and Last 2 Weeks

Now
61 °F

Passing clouds.


Feels Like: 61 °F
Forecast: 55 / 74 °F
Wind: No wind

Location: Kigali Airport

Current Time: Apr 26, 2017 at 6:21:35 am

Latest Report: Apr 26, 2017 at 5:30 am


Visibility: N/A

Pressure: 30.12 "Hg (24.49 "Hg at 1750m altitude)

Humidity: 94%

Dew Point: 59 °F

Location of ButareLocation

Past Weather in Butare — Graph

°F

Butare Temperature Yesterday

Maximum temperature yesterday: 77 °F (at 3:00 pm)
Minimum temperature yesterday: 61 °F (at 3:00 am)
Average temperature yesterday: 66 °F

High & Low Weather Summary for the Past Weeks

 TemperatureHumidityPressure
High81 °F (Apr 19, 2:00 pm)100% (Apr 19, 11:00 pm)30.27 "Hg (Apr 19, 11:00 pm)
Low59 °F (Apr 26, 5:00 am)48% (Apr 19, 3:30 pm)29.98 "Hg (Apr 19, 3:30 pm)
Average67 °F83%30.12 "Hg
* Reported Apr 19 9:00 am — Apr 26 5:00 am, Butare, Weather by CustomWeather, © 2017

Note: Actual official high and low records may vary slightly from our data, if they occured in-between our weather recording intervals... More about our weather records

Advertising

Butare Weather History for the Previous 24 Hours

Scroll right to see more
 ConditionsComfort  
Time TempWeatherWind HumidityBarometerVisibility
5:00 am
Wed, Apr 26
59 °FPassing clouds.5 mph100%30.12 "HgN/A
4:30 am61 °FPassing clouds.No wind94%30.12 "HgN/A
4:00 am61 °FPassing clouds.No wind94%30.12 "HgN/A
3:30 am61 °FPassing clouds.3 mph94%30.12 "HgN/A
2:30 am63 °FPassing clouds.No wind88%30.12 "HgN/A
2:00 am61 °FPassing clouds.6 mph94%30.12 "HgN/A
1:30 am61 °FPassing clouds.8 mph94%30.12 "HgN/A
1:00 am61 °FPassing clouds.6 mph94%30.12 "HgN/A
12:30 am63 °FPassing clouds.7 mph88%30.15 "HgN/A
12:00 am63 °FPassing clouds.3 mph88%30.15 "HgN/A
11:30 pm
Tue, Apr 25
63 °FPassing clouds.7 mph94%30.18 "HgN/A
11:00 pm63 °FPassing clouds.5 mph94%30.18 "HgN/A
10:30 pm63 °FPassing clouds.3 mph88%30.18 "HgN/A
9:30 pm64 °FPartly cloudy.2 mph83%30.15 "HgN/A
9:00 pm63 °FPartly cloudy.7 mph88%30.15 "HgN/A
7:00 pm63 °FThunderstorms. Passing clouds.12 mph83%30.12 "HgN/A
6:30 pm63 °FThunderstorms. Mostly cloudy.13 mph94%30.09 "Hg3 mi
6:00 pm72 °FMild.N/A61%30.07 "HgN/A
5:00 pm75 °FScattered clouds.6 mph61%30.04 "HgN/A
4:30 pm75 °FScattered clouds.3 mph65%30.04 "HgN/A
3:50 pm77 °FScattered clouds.5 mph57%30.07 "HgN/A
3:00 pm77 °FScattered clouds.5 mph61%30.07 "HgN/A
2:30 pm75 °FScattered clouds.3 mph65%30.09 "HgN/A
2:00 pm75 °FScattered clouds.5 mph69%30.12 "HgN/A
1:30 pm73 °FScattered clouds.2 mph69%30.12 "HgN/A
1:00 pm73 °FScattered clouds.3 mph69%30.15 "HgN/A
12:30 pm72 °FBroken clouds.6 mph73%30.18 "HgN/A
12:00 pm70 °FBroken clouds.3 mph78%30.21 "HgN/A
11:30 am68 °FPartly sunny.7 mph83%30.21 "HgN/A
11:00 am66 °FPartly sunny.6 mph88%30.21 "HgN/A
10:30 am64 °FLight rain. Partly sunny.3 mph88%30.24 "HgN/A
10:00 am63 °FLight rain. Mostly cloudy.8 mph88%30.24 "Hg6 mi
9:02 am63 °FMild.N/A94%30.24 "HgN/A
9:00 am64 °FRain. Partly sunny.9 mph88%30.24 "HgN/A
8:00 am63 °FBroken clouds.7 mph94%30.21 "Hg5 mi
7:30 am63 °FScattered clouds.N/A94%30.21 "HgN/A
7:00 am63 °FBroken clouds.No wind94%30.18 "HgN/A
6:30 am61 °FBroken clouds.2 mph94%30.18 "HgN/A
Weather by CustomWeather, © 2017

See weather overviewHow to use our weather pages